Retour au catalogue

CZ-6A DEB

ActifSSO
NORAD 56598·DEBRIS·🇨🇳 China

Lancé Nov 11, 2022 depuis Taiyuan Satellite Launch Center

Loading…

Prochains Passages (prochaines 24 heures)

TLE

VieillissantSource: Space-Track

Époque: Sep 11, 2026, 00:17 UTC

1 56598U 22151ADW 26254.01223014  .00000814  00000-0  37587-3 0  9992
2 56598  98.7719 271.6498 0045826  96.2901 264.3499 14.23163922175660

Suivez CZ-6A DEB en temps réel avec AllMySat

Download on the App Store